Regional Weather Roundup
Issued by NWS

Home | Current Version | Previous Version | Graphics & Text | Print | Product List | Glossary On
Versions: 1 2 3 4 5 6 7 8 9 10 11 12 13 14 15 16 17 18 19 20 21 22 23 24 25 26 27 28 29 30 31 32 33 34 35 36 37 38 39 40 41 42 43 44 45 46 47 48 49 50
000
ASUS44 KMEG 011200
RWRTN
TENNESSEE HOURLY STATE WEATHER ROUNDUP
NATIONAL WEATHER SERVICE MEMPHIS TN
600 AM CST SUN FEB 01 2015

TNZ002-004-019-021-049-052-054-088>092-011300-
WEST TENNESSEE

CITY           SKY/WX    TMP DP  RH WIND       PRES   REMARKS
MEMPHIS INTL   LGT RAIN  49  44  83 S17G24    29.91F
NWS MEMPHIS      N/A     48 N/A N/A MISG        N/A
JACKSON        LGT RAIN  48  33  56 S14G22    29.94F
DYERSBURG      CLOUDY    46  27  46 S13G18    29.91F
UNION CITY     CLOUDY    45  34  65 S16       29.88F
PARIS          MOCLDY    46  25  42 S14       29.93F
LEXINGTON      MOCLDY    48  25  40 S9        29.96F
SAVANNAH       MOCLDY    48  30  49 S13       30.00F
$$

TNZ008-025-027-028-033-062-065-066-011300-
NORTH MIDDLE TENNESSEE

CITY           SKY/WX    TMP DP  RH WIND       PRES   REMARKS
NASHVILLE      CLOUDY    48  22  35 S14       30.03F
CLARKSVILLE    CLOUDY    47  23  38 S12       29.97F
COOKEVILLE     PTCLDY    46  21  36 S12       30.07R
CROSSVILLE     CLOUDY    43  18  36 S13G22    30.08F
$$

TNZ061-075-076-078-094-096-097-011300-
SOUTH MIDDLE TENNESSEE

CITY           SKY/WX    TMP DP  RH WIND       PRES   REMARKS
FAYETTEVILLE   CLEAR     45  23  42 MISG      30.07F
TULLAHOMA      PTCLDY    46  21  36 S10       30.08S
WINCHESTER     MOCLDY    46  25  42 S8        30.10R
COLUMBIA       CLOUDY    46  28  49 S10       30.01S
SHELBYVILLE    MOCLDY    48  25  40 SE7       30.07S
$$

TNZ017-018-042-046-047-011300-
NORTHEAST TENNESSEE

CITY           SKY/WX    TMP DP  RH WIND       PRES   REMARKS
TRI CITIES     CLOUDY    34  22  61 NE3       30.15F
ELIZABETHTON   MOSUNNY   34  18  51 NE5       30.15F WCI  30
$$

TNZ012-013-036-069-073-074-011300-
CENTRAL EAST TENNESSEE

CITY           SKY/WX    TMP DP  RH WIND       PRES   REMARKS
KNOXVILLE      CLOUDY    35  26  69 E8        30.12F WCI  29
OAK RIDGE      CLOUDY    37  26  64 CALM      30.16F
GATLINBURG     PTSUNNY   34  25  69 CALM      30.15F
$$

TNZ083-085-099-011300-
SOUTHEAST TENNESSEE

CITY           SKY/WX    TMP DP  RH WIND       PRES   REMARKS
CHATTANOOGA    CLOUDY    37  30  75 NW3       30.15F
$$

SKY/WX REPORTED AS FAIR MEANS FEW OR NO CLOUDS BELOW
12 THOUSAND FEET.




USA.gov is the U.S. government's official web portal to all federal, state and local government web resources and services.